Total_Precipitation_Accumulation
0.02 0.02 0.07 0.10 0.11 0.13 0.14 0.16 0.21 0.17 0.17 0.21 0.29 0.52 0.76 0.88 1.06 1.19 1.13 1.09 1.18 1.23 1.40 1.65 1.86 2.07 2.31 2.49 2.61 2.80 3.05 3.36 3.58 3.91 4.22 4.37 4.45 4.63 4.70 4.70 4.76 4.78 4.79 4.92
0.03 0.04 0.04 0.06 0.05 0.07 0.09 0.13 0.17 0.18 0.19 0.21 0.32 0.53 0.77 0.87 1.00 1.16 1.21 1.22 1.22 1.32 1.44 1.82 2.14 2.58 2.80 2.86 2.88 3.09 3.42 3.72 3.89 4.28 4.77 5.14 5.26 5.33 5.36 5.33 5.49 5.60 5.62 5.75
0.05 0.04 0.02 0.03 0.03 0.04 0.07 0.09 0.11 0.18 0.22 0.28 0.43 0.78 1.02 1.02 1.14 1.24 1.27 1.43 1.42 1.45 1.69 1.97 2.32 2.60 2.75 2.84 2.93 3.10 3.53 3.98 4.42 4.91 5.46 5.89 6.09 6.12 6.00 5.72 5.79 5.91 5.81 5.86
0.04 0.03 0.02 0.03 0.03 0.04 0.06 0.07 0.08 0.13 0.22 0.34 0.42 0.94 1.33 1.41 1.46 1.36 1.36 1.48 1.46 1.46 1.67 1.97 2.19 2.45 2.60 2.72 2.94 3.13 3.50 4.14 4.64 5.01 5.67 6.28 6.54 6.72 6.83 6.61 6.29 6.04 5.79 5.64
0.03 0.03 0.04 0.05 0.05 0.05 0.06 0.05 0.08 0.10 0.15 0.27 0.31 0.73 1.46 1.63 1.74 1.58 1.50 1.54 1.38 1.32 1.49 1.81 1.94 2.19 2.48 2.58 2.70 2.92 3.42 4.02 4.70 5.33 5.88 6.42 6.84 7.03 7.01 6.62 6.19 5.68 5.30 4.87
0.03 0.02 0.02 0.04 0.03 0.03 0.05 0.05 0.10 0.12 0.20 0.40 0.38 0.66 1.48 1.88 2.06 2.09 1.75 1.51 1.36 1.26 1.34 1.46 1.57 1.75 2.07 2.18 2.40 2.70 3.10 3.82 4.53 5.14 5.75 6.22 6.60 6.64 6.31 5.80 5.31 4.97 4.59 4.10
0.07 0.05 0.04 0.03 0.04 0.04 0.05 0.13 0.34 0.50 0.60 0.61 0.47 0.76 1.54 1.75 1.66 1.64 1.67 1.69 1.50 1.23 1.20 1.33 1.37 1.51 1.70 1.85 2.14 2.51 3.02 3.62 4.08 4.59 5.11 5.44 5.66 5.73 5.64 5.31 4.90 4.58 4.16 3.72
0.17 0.16 0.07 0.03 0.05 0.07 0.06 0.15 0.50 0.72 0.77 0.79 0.81 1.21 1.84 1.65 1.34 1.29 1.42 1.50 1.39 1.29 1.28 1.44 1.54 1.64 1.74 1.84 2.02 2.40 2.85 3.28 3.51 3.74 4.14 4.43 4.57 4.62 4.50 4.26 3.93 3.64 3.36 3.09
0.20 0.20 0.08 0.04 0.05 0.05 0.09 0.13 0.25 0.36 0.46 0.75 1.18 1.68 2.21 2.07 1.55 1.34 1.38 1.35 1.30 1.30 1.29 1.46 1.62 1.72 1.81 1.85 2.00 2.15 2.40 2.64 2.88 3.05 3.21 3.34 3.39 3.32 3.22 3.02 2.78 2.58 2.39 2.15
0.20 0.19 0.12 0.06 0.07 0.09 0.12 0.16 0.22 0.40 0.68 1.02 1.33 1.92 2.64 2.60 2.03 1.62 1.53 1.46 1.35 1.31 1.34 1.47 1.53 1.61 1.66 1.61 1.68 1.76 1.98 2.10 2.26 2.38 2.41 2.30 2.31 2.30 2.18 2.02 1.92 1.78 1.59 1.47
0.27 0.27 0.17 0.10 0.13 0.17 0.15 0.19 0.30 0.42 0.52 1.00 1.55 2.29 2.52 2.68 2.45 2.05 1.65 1.41 1.31 1.27 1.26 1.30 1.34 1.37 1.39 1.31 1.32 1.41 1.56 1.76 1.86 1.85 1.88 1.82 1.75 1.62 1.53 1.43 1.40 1.31 1.22 1.19
0.24 0.33 0.32 0.19 0.15 0.13 0.15 0.20 0.33 0.58 0.62 0.76 1.31 2.40 2.50 2.77 2.65 2.28 1.90 1.58 1.43 1.37 1.25 1.19 1.16 1.15 1.15 1.11 1.10 1.18 1.24 1.33 1.37 1.40 1.41 1.39 1.34 1.24 1.20 1.15 1.12 1.13 1.10 1.07
0.19 0.41 0.65 0.68 0.56 0.26 0.17 0.19 0.25 0.36 0.56 0.83 1.35 2.36 2.54 2.45 2.35 2.27 2.06 1.77 1.55 1.46 1.30 1.26 1.18 1.12 1.13 1.19 1.20 1.07 1.08 1.12 1.14 1.17 1.17 1.15 1.18 1.16 1.12 1.15 1.15 1.13 1.09 1.07
0.13 0.41 0.82 1.17 1.09 0.55 0.37 0.28 0.28 0.37 0.73 0.89 1.20 1.82 2.13 2.14 2.16 2.27 2.27 1.91 1.50 1.36 1.26 1.29 1.32 1.29 1.21 1.20 1.31 1.19 1.07 1.06 1.14 1.11 1.09 1.01 0.97 1.01 1.04 1.06 1.08 1.05 1.01 1.02
0.20 0.47 0.46 0.44 0.43 0.41 0.41 0.36 0.36 0.41 0.48 0.83 1.22 1.66 2.06 2.19 2.14 2.09 1.98 1.76 1.44 1.35 1.41 1.37 1.31 1.32 1.26 1.21 1.24 1.21 1.16 1.09 1.27 1.24 1.20 1.10 1.00 1.00 1.02 1.02 0.99 0.95 0.91 0.86
0.24 0.46 0.43 0.41 0.31 0.36 0.42 0.42 0.45 0.53 0.58 0.80 1.28 1.87 2.21 2.27 2.17 2.11 2.04 1.86 1.76 1.67 1.62 1.59 1.49 1.47 1.45 1.37 1.34 1.27 1.24 1.21 1.29 1.35 1.41 1.42 1.32 1.26 1.23 1.14 1.01 0.99 0.98 0.90
0.26 0.47 0.63 0.65 0.36 0.53 0.90 0.71 0.66 0.76 0.83 1.04 1.62 1.92 1.89 1.98 2.11 2.24 2.31 2.18 2.03 1.94 1.87 1.84 1.77 1.71 1.68 1.64 1.56 1.47 1.37 1.33 1.34 1.41 1.45 1.43 1.41 1.39 1.34 1.18 1.05 1.03 1.00 0.98
0.27 0.50 0.66 0.72 0.77 1.35 1.25 0.69 0.69 0.90 1.04 1.14 1.38 1.49 1.53 1.59 1.72 1.82 1.95 2.03 2.02 1.87 1.79 1.80 1.83 1.81 1.79 1.69 1.59 1.51 1.42 1.39 1.40 1.42 1.43 1.40 1.30 1.29 1.22 1.12 1.09 1.05 0.97 0.95
0.19 0.42 0.70 0.82 1.13 1.35 1.18 0.70 0.70 1.12 1.63 1.32 1.26 1.16 1.07 1.06 1.22 1.59 1.76 1.82 1.97 2.00 1.90 1.85 1.80 1.71 1.68 1.64 1.57 1.51 1.47 1.45 1.44 1.41 1.33 1.25 1.17 1.15 1.08 1.05 0.99 0.91 0.85 0.83
0.21 0.34 0.70 0.91 1.34 1.63 1.51 0.71 0.53 0.96 2.01 1.53 1.31 1.17 1.07 1.18 1.50 1.59 1.52 1.51 1.58 1.69 1.74 1.64 1.49 1.40 1.43 1.47 1.46 1.44 1.42 1.41 1.38 1.18 1.00 0.94 0.96 0.96 0.92 0.87 0.81 0.77 0.75 0.74
0.58 0.64 0.82 1.02 1.43 1.65 0.91 0.48 0.64 1.54 1.99 1.52 1.27 1.14 1.10 1.33 1.45 1.25 1.18 1.24 1.26 1.30 1.28 1.21 1.15 1.20 1.28 1.29 1.24 1.24 1.20 1.19 1.13 1.02 0.87 0.84 0.83 0.77 0.75 0.74 0.74 0.71 0.66 0.69
0.72 0.87 0.95 1.11 1.52 1.68 0.73 0.56 0.99 1.23 1.02 1.01 0.99 0.94 0.91 0.89 0.84 0.89 0.93 0.96 0.92 0.92 0.94 0.90 0.92 0.99 1.04 1.00 1.00 1.08 1.09 1.01 0.93 0.95 0.88 0.83 0.74 0.64 0.63 0.75 0.74 0.70 0.71 0.74
0.66 0.79 0.91 1.09 1.34 1.10 0.62 0.58 0.67 0.71 0.77 0.76 0.75 0.70 0.59 0.54 0.53 0.64 0.66 0.66 0.64 0.64 0.70 0.73 0.75 0.80 0.88 0.89 0.91 0.97 0.98 0.88 0.87 0.93 0.91 0.80 0.68 0.69 0.69 0.74 0.73 0.65 0.63 0.58
0.67 0.51 0.62 0.78 0.88 0.72 0.59 0.56 0.52 0.48 0.51 0.50 0.54 0.55 0.45 0.43 0.48 0.55 0.55 0.52 0.50 0.52 0.54 0.61 0.65 0.66 0.73 0.75 0.79 0.86 0.78 0.76 0.90 1.01 0.96 0.81 0.71 0.66 0.61 0.60 0.54 0.50 0.50 0.49
0.67 0.58 0.61 0.76 0.80 0.74 0.72 0.53 0.44 0.36 0.33 0.34 0.38 0.41 0.38 0.37 0.44 0.45 0.46 0.48 0.50 0.51 0.54 0.59 0.63 0.62 0.59 0.60 0.66 0.64 0.64 0.76 1.00 0.99 0.88 0.76 0.63 0.56 0.51 0.43 0.36 0.32 0.31 0.30
0.44 0.54 0.63 0.71 0.64 0.72 0.77 0.56 0.42 0.38 0.34 0.33 0.31 0.32 0.36 0.39 0.42 0.40 0.39 0.41 0.44 0.47 0.48 0.56 0.57 0.52 0.54 0.58 0.59 0.56 0.58 0.67 0.87 0.90 0.72 0.60 0.51 0.44 0.37 0.33 0.32 0.25 0.20 0.17